sat.trackr.live / text

‹ back to catalog

STARLINK-34111

NORAD 64041 · 2025-102V

PAYLOAD ACTIVE UNKNOWN

§ Identity

Operator
Country
US
Launch date
2025-05-16
Launch site
AFWTR
Launch vehicle
Mass (kg)
RCS (m²)

Purposes: comms

External: N2YO · Heavens-Above · Gunter

§ Orbital elements

Epoch: 2026-05-25T01:57:02.147904Z

Period
96.11 min
Inclination
70.0006°
Eccentricity
0.0003205
Mean motion
14.98330664 rev/d
Perigee alt
569.8 km
Apogee alt
574.3 km
Semi-major
6,950.2 km
B*
3.8836e-4
RAAN
281.8860°
Arg perigee
274.2648°
Mean anomaly
85.8144°
Rev number
5,717

§ Raw data

STARLINK-341111 64041U 25102V   26145.08127486  .00004544  00000+0  38836-3 0  99962 64041  70.0006 281.8860 0003205 274.2648  85.8144 14.98330664 57170

JSON: /api/v1/satellites/64041 · /tle

For live sub-satellite position, see the globe view (requires WebGL).

§ Visibility from observer

Set your observer location to see the next 7 days of passes ≥ 10°. The values pass through the URL so the page stays shareable.

No JS? Fill the form by hand. The geolocation button needs JavaScript.